Location: Boca do Mato
(22.9085°S, 43.2930°W)
Time: 00:46:05
(UTC+00:00)

MOS 1-B - Visible Passes

Search period start: 24 October 2020 00:00
Search period end: 03 November 2020 00:00
Orbit: 905 x 914 km, 99.4° (Epoch: 23 October)

Date Brightness Start Highest point End Pass type
(mag) Time Alt. Az. Time Alt. Az. Time Alt. Az.
24 Oct 7.9 06:41:25 10° E 06:42:48 11° ESE 06:44:12 10° SE visible
25 Oct 7.7 06:45:44 10° E 06:48:04 13° ESE 06:50:25 10° SE visible
26 Oct 7.6 06:50:23 10° E 06:53:21 14° ESE 06:56:19 10° SE visible
27 Oct 7.5 06:55:10 10° ENE 06:58:37 16° ESE 07:02:05 10° SSE visible
28 Oct 7.3 07:00:03 10° ENE 07:03:53 18° ESE 07:07:45 10° SSE visible
28 Oct 6.3 21:20:53 10° S 21:26:07 35° WSW 21:31:18 10° NW visible
29 Oct 7.2 07:05:00 10° ENE 07:09:10 21° ESE 07:13:22 10° SSE visible
29 Oct 6.5 21:26:21 10° S 21:31:25 32° WSW 21:36:26 10° NW visible
30 Oct 7.0 07:09:59 10° ENE 07:14:28 23° ESE 07:18:57 10° SSE visible
30 Oct 6.8 21:31:51 10° SSW 21:36:42 28° WSW 21:41:31 10° NW visible
31 Oct 6.8 07:15:02 10° NE 07:19:45 26° ESE 07:24:30 10° SSE visible
31 Oct 7.0 21:37:23 10° SSW 21:42:00 25° WSW 21:46:35 10° WNW visible
01 Nov 6.6 07:20:06 10° NE 07:25:02 29° ESE 07:30:00 10° SSE visible
01 Nov 7.2 21:42:56 10° SSW 21:47:17 22° WSW 21:51:37 10° WNW visible
02 Nov 6.4 07:25:13 10° NE 07:30:20 33° ESE 07:35:29 10° S visible
02 Nov 7.4 21:48:31 10° SSW 21:52:34 20° WSW 21:56:35 10° WNW visible
